GFSSE_prec_cloud_057.txt.gz
Cloud_Cover
36 3 0 13 50 100 100 53 100 7 44 100 100 100 100 96 69 100 21 27 100 100 98 100 100 100 100 100 100 100 90 3 0 0 5 100 96 92 33 0 51 84 38
29 2 0 7 81 96 100 100 100 41 33 100 100 100 100 98 100 38 95 100 100 100 100 100 100 100 100 32 15 1 2 0 0 0 0 13 78 98 56 1 81 87 97
1 5 25 6 80 100 100 94 72 62 7 100 100 74 100 99 98 93 100 99 100 100 100 100 48 95 20 76 0 0 0 0 8 33 5 6 90 53 3 0 1 87 68
15 6 7 4 44 100 100 100 92 5 18 79 100 94 100 59 86 100 100 100 100 100 53 26 36 5 4 5 5 25 2 14 15 48 52 0 9 6 0 0 1 1 0
63 47 74 51 26 2 100 100 100 6 3 21 90 92 96 21 100 100 100 100 92 40 32 36 7 5 4 5 5 7 80 91 83 1 7 62 0 5 7 52 100 85 61
93 39 54 11 67 79 8 100 100 100 45 3 100 100 100 96 100 100 100 100 100 100 100 19 5 33 59 100 100 6 5 2 0 0 81 47 1 0 22 5 9 76 80
100 100 67 56 49 22 2 20 38 98 100 46 100 66 96 100 100 100 100 100 100 100 50 85 98 54 89 66 13 3 2 4 0 0 5 5 9 5 2 3 3 1 5
100 100 100 100 100 17 62 80 77 100 100 59 100 99 100 100 100 100 100 100 100 100 100 97 99 10 38 46 42 42 48 6 5 5 5 12 41 40 0 4 4 14 14
100 100 100 100 100 100 75 97 72 100 9 100 92 100 100 100 100 100 100 100 79 80 28 30 39 26 11 76 83 83 100 80 12 21 16 5 25 4 5 5 5 10 87
100 100 79 100 100 100 100 100 99 78 99 100 86 55 100 100 100 100 100 100 85 16 26 48 67 5 13 61 5 82 100 100 99 40 83 95 46 59 6 9 69 13 17
100 100 100 100 100 100 100 100 100 100 100 100 100 100 100 100 100 100 100 97 6 5 26 58 12 28 22 76 52 76 100 100 100 97 70 92 41 80 38 74 96 77 3
100 100 100 100 100 100 100 100 100 100 100 100 100 100 100 100 100 100 100 100 82 79 53 6 5 93 94 78 64 99 100 100 100 100 74 89 93 100 84 94 8 5 10
100 100 100 100 100 100 100 100 100 100 100 100 100 100 100 100 100 100 100 100 100 71 70 38 34 98 35 39 92 100 100 100 100 100 100 91 91 100 100 100 93 94 100
100 100 100 100 100 100 100 100 100 100 100 100 100 100 100 100 100 100 100 100 89 7 45 76 66 83 100 84 90 99 62 94 95 100 100 100 100 100 99 67 99 100 100
100 100 100 100 100 100 100 100 100 100 100 100 100 100 100 100 100 100 100 100 100 67 87 100 99 100 100 100 100 89 97 98 100 100 100 98 100 100 100 100 100 100 100
100 100 100 100 100 100 100 100 100 100 100 100 100 100 100 100 100 100 100 100 100 100 99 91 74 78 79 93 97 84 98 100 100 99 99 100 100 100 100 100 100 100 100
100 100 100 100 100 100 100 100 100 100 100 100 100 100 100 100 100 100 100 100 100 95 100 92 67 80 99 87 100 75 92 91 100 100 100 100 100 100 100 100 100 100 100
100 100 100 100 100 100 100 100 100 100 100 100 100 100 100 100 100 100 100 100 100 100 100 100 95 95 62 79 98 82 100 100 98 100 100 100 100 100 100 100 100 100 100
100 100 100 100 100 100 100 100 100 100 100 100 100 100 100 100 100 100 100 99 88 96 100 100 100 92 90 100 100 97 100 100 100 100 100 100 100 100 100 100 100 100 100
100 100 100 100 100 100 100 100 100 100 100 100 100 100 100 100 100 100 72 78 52 100 100 100 100 100 100 100 100 100 100 100 100 100 100 100 100 100 100 100 100 100 100
100 100 100 100 100 100 100 100 100 100 100 100 100 100 100 100 100 100 100 100 100 100 100 100 100 100 92 100 100 100 100 100 100 100 100 100 100 99 96 99 100 100 100
96 100 100 100 100 100 100 100 100 100 100 100 100 100 98 99 100 100 100 100 100 100 100 100 100 100 100 100 100 100 100 100 100 63 67 100 98 100 100 100 85 96 84
97 85 100 100 100 100 100 100 100 100 100 100 100 100 100 100 100 100 100 100 100 100 100 100 100 100 100 100 100 100 100 100 76 100 98 96 100 99 100 100 98 100 100
48 44 70 68 96 100 100 100 100 100 100 100 100 100 100 100 100 100 100 100 100 100 100 100 100 100 100 100 100 100 100 90 100 100 100 100 100 95 100 65 97 96 94
59 50 60 94 100 100 100 100 100 100 100 100 100 100 100 100 100 100 100 100 100 100 100 100 100 100 100 100 100 92 100 99 100 100 99 86 100 82 100 98 92 86 86
37 74 83 60 100 100 100 100 100 100 100 100 100 100 100 100 100 100 100 100 100 100 100 100 100 100 100 100 100 100 94 100 100 100 100 100 100 99 100 56 100 100 100

GFSSE_prec_cloud_060.txt.gz
Cloud_Cover
53 67 0 0 0 0 0 28 31 14 20 5 5 98 37 97 100 99 100 98 100 100 100 100 100 97 100 100 100 100 98 92 12 14 51 92 69 14 2 1 63 80 11
77 80 0 15 68 3 4 26 100 100 100 5 7 93 100 96 100 100 94 100 100 100 29 46 83 100 100 100 99 46 5 5 4 3 4 78 78 70 30 59 98 100 52
99 100 1 16 43 63 5 100 76 97 94 28 41 100 100 100 100 81 39 8 49 42 100 100 100 99 28 81 54 4 2 1 0 0 0 55 100 100 33 70 100 98 100
44 100 31 0 18 32 27 55 100 100 100 97 100 100 100 95 93 100 45 31 56 100 100 78 21 6 37 18 21 24 5 1 2 0 0 24 41 92 100 100 97 98 99
43 43 88 0 0 1 98 26 100 100 100 99 99 100 100 100 92 100 100 99 100 100 60 5 0 4 7 41 4 3 0 4 4 0 2 3 0 36 71 30 7 5 0
19 99 99 0 0 91 100 32 100 100 100 20 98 100 100 100 92 100 100 100 100 98 25 5 5 94 86 7 75 27 4 2 5 0 0 0 2 6 3 5 6 4 5
43 99 100 78 97 99 100 76 24 98 100 100 100 100 100 100 100 100 51 100 100 77 30 100 100 100 87 8 74 7 5 0 1 2 5 5 5 21 5 7 5 5 5
100 100 100 100 100 73 100 53 14 12 19 75 100 12 100 100 100 79 100 100 100 96 100 100 80 96 42 6 7 24 5 5 5 9 17 23 23 6 5 33 3 5 8
100 100 100 100 100 100 89 100 100 100 63 5 88 47 98 100 100 100 100 100 100 100 100 83 100 100 39 30 92 17 56 24 27 5 20 75 51 46 5 5 8 22 67
100 100 100 100 100 100 100 100 100 100 100 100 85 93 7 100 100 100 100 100 100 100 100 100 100 56 55 56 74 88 32 5 20 15 6 15 35 53 72 58 81 20 51
100 100 100 100 100 100 100 100 100 100 100 100 65 100 100 100 94 100 100 100 100 100 100 56 92 60 89 8 18 98 15 11 33 29 100 98 87 100 100 99 100 42 82
100 100 100 100 100 100 100 100 100 100 100 100 100 100 94 91 100 100 100 100 100 100 100 100 79 95 5 49 44 32 83 70 41 91 100 100 100 100 100 100 89 51 62
100 100 100 100 100 100 100 100 100 100 100 100 100 100 100 69 100 100 100 100 100 100 100 97 86 7 55 7 59 100 100 100 100 100 100 100 100 100 92 100 100 100 95
100 100 100 100 100 100 100 100 100 100 100 100 100 100 100 100 100 100 100 100 100 100 100 100 6 5 6 93 100 99 79 99 100 100 100 100 100 100 96 100 100 100 100
100 100 100 100 100 100 100 100 100 100 100 100 100 100 100 100 100 100 100 100 100 100 100 72 5 5 46 74 68 100 100 98 68 88 100 100 99 98 96 100 100 100 100
100 100 100 100 100 100 100 100 100 100 100 100 100 100 100 100 100 100 100 100 100 91 10 81 79 88 99 74 100 100 97 59 100 69 70 56 61 100 100 100 100 100 100
100 100 100 100 100 100 100 100 100 100 100 100 100 100 100 100 100 100 100 100 100 94 75 100 100 98 95 100 100 96 95 54 68 65 19 69 100 100 100 100 100 100 100
100 100 100 100 100 100 100 100 100 100 100 100 100 100 100 100 100 100 100 100 100 100 98 99 100 97 81 97 63 71 18 33 72 72 88 100 100 100 100 100 100 100 100
100 100 100 100 100 100 100 100 100 100 100 100 100 100 100 100 100 100 100 100 100 100 100 100 100 28 13 86 96 79 70 86 99 100 100 77 100 100 100 100 100 100 100
87 100 100 100 100 100 100 100 100 100 100 100 100 100 100 100 100 100 100 100 100 100 100 100 79 98 98 100 97 87 84 100 100 88 100 100 100 100 100 100 100 100 99
60 100 100 100 100 100 100 100 100 100 100 100 100 100 100 100 100 100 100 100 100 100 100 100 100 100 100 100 100 100 95 65 96 99 100 100 100 100 100 100 100 100 100
52 73 68 100 100 100 100 100 100 100 100 100 100 100 100 100 100 100 100 100 100 100 100 100 100 100 88 92 100 100 100 100 95 100 100 100 99 100 100 100 100 100 100
28 100 95 100 100 100 99 100 100 100 100 100 100 100 100 100 100 100 100 100 100 100 100 100 100 100 100 100 100 100 98 100 100 100 100 100 100 100 100 90 100 60 5
0 55 95 99 99 100 100 100 100 100 100 100 100 100 100 100 100 100 100 100 100 100 100 100 100 100 100 100 100 100 100 100 100 100 100 100 99 100 100 100 96 72 5
0 13 34 92 100 100 100 100 100 100 100 100 100 100 100 100 100 100 100 100 100 100 100 100 100 100 100 100 100 100 100 100 100 100 100 100 100 100 100 22 20 12 100
0 0 68 99 98 100 100 100 100 100 100 100 100 100 100 100 100 100 100 100 100 100 100 100 100 100 100 100 100 100 100 100 100 100 100 100 100 100 74 100 43 62 68

GFSSE_prec_cloud_063.txt.gz
Cloud_Cover
0 0 0 1 6 1 0 1 4 1 0 2 0 3 5 5 5 89 97 100 100 98 89 62 87 98 26 12 4 4 14 13 53 88 6 5 21 15 3 15 86 74 0
0 3 15 0 1 3 16 0 5 34 3 0 5 5 5 5 5 22 99 100 99 100 92 98 100 100 100 80 95 100 98 99 55 14 6 93 100 97 32 0 47 53 45
0 51 0 0 0 5 21 24 28 52 100 98 10 6 23 41 60 86 90 99 100 100 77 77 100 100 97 100 49 57 56 52 32 4 35 78 61 74 52 8 59 18 31
1 34 7 0 0 5 1 0 11 53 100 100 78 32 98 99 100 100 100 100 100 100 100 14 100 100 100 78 5 5 5 5 5 8 4 29 96 63 71 93 73 100 100
0 98 100 0 0 0 2 0 0 77 99 100 93 65 97 96 100 100 100 100 100 92 72 76 100 97 16 10 5 5 3 4 4 10 1 1 71 100 100 97 99 38 9
2 28 100 20 0 0 100 78 5 4 100 97 46 41 100 100 100 100 88 6 27 61 100 100 100 25 9 6 5 5 1 2 0 2 0 1 9 100 25 0 7 5 3
25 63 100 92 98 51 5 89 90 97 100 100 98 81 97 100 100 93 84 5 37 93 100 100 86 56 52 72 11 6 5 2 34 2 0 1 4 5 2 5 5 5 2
84 100 100 100 100 100 100 100 100 100 100 100 100 100 100 100 100 100 77 5 5 100 100 100 72 48 100 100 100 59 4 2 76 53 61 41 43 5 5 5 5 4 4
100 100 100 100 100 100 100 100 100 100 100 100 77 43 100 100 100 100 88 13 5 81 100 100 83 100 100 22 3 4 73 93 100 75 10 31 65 72 67 33 92 15 40
100 100 100 100 100 100 100 100 100 100 100 100 100 45 100 99 100 100 54 10 39 100 100 100 100 100 99 28 64 8 98 99 19 88 8 55 100 5 32 100 100 76 21
100 100 100 100 100 100 100 100 100 100 100 100 100 100 100 99 100 98 92 100 47 100 100 100 100 100 100 100 9 100 11 6 25 69 87 24 100 98 90 100 48 46 82
100 100 100 100 100 100 100 96 100 100 100 100 100 100 70 66 52 100 97 100 99 100 100 100 100 100 100 100 100 69 5 49 46 91 67 82 100 74 99 90 100 94 5
100 100 100 100 100 96 100 79 100 100 100 100 100 95 100 67 5 98 100 93 96 100 100 100 100 100 91 100 13 90 11 91 76 100 100 100 100 100 100 100 82 100 94
100 100 100 100 100 100 93 100 100 100 100 100 100 100 100 100 93 100 100 100 100 100 100 100 100 100 68 12 10 53 100 100 98 100 100 100 100 100 100 88 99 21 56
88 100 100 100 100 100 100 100 100 100 100 100 100 100 100 100 100 100 99 100 100 100 100 100 100 98 100 100 46 62 100 100 95 15 100 100 100 94 100 100 65 98 66
88 100 100 100 100 100 100 100 100 100 100 100 100 100 100 100 100 100 100 100 100 100 100 100 100 100 100 58 67 56 79 100 57 100 100 83 69 79 71 99 100 99 100
51 100 100 100 100 100 100 100 100 100 100 100 100 100 100 100 100 100 100 100 100 100 100 100 100 100 95 100 65 99 100 100 100 100 100 99 90 100 100 97 100 99 92
54 96 100 92 100 100 100 100 100 100 100 100 100 100 100 100 100 100 100 100 100 100 100 100 100 97 79 55 75 100 100 100 95 94 26 26 91 96 100 100 100 100 100
54 91 100 71 100 100 100 100 100 100 100 100 100 100 100 100 100 100 100 100 100 100 100 100 100 100 100 94 85 27 100 65 65 43 5 82 100 96 100 100 100 100 100
72 79 100 100 100 100 100 100 95 100 100 100 100 100 100 100 100 100 100 100 100 100 100 100 100 100 83 100 73 62 97 68 23 9 74 98 95 100 100 100 100 100 100
24 100 100 100 100 100 100 100 100 100 100 100 100 100 100 100 100 100 100 100 100 100 100 100 100 95 90 100 100 100 54 13 60 29 34 89 100 100 100 100 100 100 100
1 100 85 100 100 100 95 100 100 100 100 100 100 100 100 100 100 100 100 100 100 100 100 100 100 100 100 100 100 100 90 66 66 81 100 100 100 100 100 100 100 100 100
0 67 100 100 100 100 100 96 100 100 100 100 100 100 100 100 100 100 100 100 100 100 100 100 100 100 100 100 100 98 100 100 99 100 100 100 100 100 100 100 100 100 100
0 11 82 76 100 86 100 67 100 100 96 99 100 100 100 100 100 100 100 100 100 100 100 100 100 100 100 100 100 100 100 100 100 100 100 100 100 100 100 100 100 100 55
0 7 12 100 74 99 100 100 93 100 100 100 100 100 100 100 100 100 100 100 100 100 100 100 100 100 100 100 100 100 100 100 100 100 100 100 100 100 100 100 100 100 95
0 0 6 88 99 88 100 100 100 100 100 100 100 100 100 100 100 100 100 100 100 100 100 100 100 100 100 100 100 100 100 100 100 100 100 100 100 100 100 100 100 100 100

GFSSE_prec_cloud_066.txt.gz
Cloud_Cover
0 0 0 0 0 10 0 0 9 0 34 21 5 17 0 0 0 0 5 5 5 5 5 3 18 5 6 10 12 4 3 5 4 1 4 33 81 47 1 2 3 2 4
2 0 4 0 0 2 0 4 0 0 0 0 4 7 5 0 5 5 5 5 8 43 5 100 93 96 54 14 93 100 100 72 84 99 94 99 100 100 40 2 0 17 9
1 0 0 0 0 0 0 0 3 0 42 63 12 0 5 1 11 100 23 5 5 5 93 92 100 100 99 100 100 97 100 99 96 55 42 50 98 100 92 78 100 100 100
2 1 0 0 0 0 0 0 0 2 55 26 5 5 5 16 5 93 72 40 5 48 78 100 100 100 100 68 54 99 99 92 22 61 66 100 100 100 99 67 72 59 87
0 17 0 0 0 0 0 0 0 0 3 17 11 64 37 80 19 5 69 94 97 66 74 100 100 100 96 100 97 100 84 38 10 5 5 100 100 100 100 100 100 100 100
0 54 0 0 0 0 24 86 20 35 0 99 93 16 87 93 100 100 100 100 100 100 100 100 100 100 100 99 10 23 13 80 27 0 0 84 100 100 100 100 99 38 92
0 0 0 67 45 74 97 20 100 100 100 100 100 100 100 100 98 68 100 100 100 100 94 100 100 100 59 90 93 5 9 5 0 0 0 1 100 82 45 4 1 14 10
0 8 84 100 100 100 100 100 100 100 100 100 100 99 97 100 100 100 100 100 98 100 24 90 100 52 34 84 27 76 9 31 5 0 4 18 22 48 8 21 5 3 5
0 38 100 100 100 100 100 100 100 100 100 100 100 100 100 98 100 100 100 100 93 44 5 96 12 30 5 92 74 12 68 16 8 5 58 43 97 9 81 64 5 21 38
0 100 100 100 78 100 100 100 100 100 100 100 100 100 100 100 100 100 100 100 7 5 5 5 85 50 100 75 19 100 68 5 36 57 5 6 31 7 5 5 21 5 72
4 100 100 100 100 98 100 100 100 100 100 100 100 100 100 100 98 100 100 100 84 65 15 6 86 100 100 27 100 97 5 7 50 88 16 13 50 10 13 5 46 100 100
47 100 100 99 100 100 100 100 100 100 100 100 100 100 100 100 70 99 100 100 100 97 7 97 100 100 100 100 100 36 72 99 88 18 7 12 98 49 80 68 100 83 100
84 79 100 100 100 100 100 100 100 100 100 100 100 100 100 100 100 100 95 100 100 100 100 100 100 100 100 100 83 96 99 100 11 8 47 98 76 9 100 94 100 96 92
48 100 100 100 100 100 100 100 100 100 100 100 100 100 100 100 98 44 98 90 100 100 81 100 100 100 100 100 100 100 100 100 8 15 96 100 100 44 100 100 100 94 6
10 100 83 100 100 100 84 100 100 100 100 100 100 100 100 100 62 43 42 89 98 81 79 96 100 100 100 100 100 100 47 99 63 92 100 100 100 100 100 100 98 61 36
55 68 97 100 100 100 44 100 100 100 100 100 100 100 100 100 91 89 89 100 100 100 99 100 100 100 100 100 100 100 100 100 100 95 98 100 100 100 100 100 41 58 60
89 84 98 100 100 100 100 100 100 100 100 100 100 100 100 100 100 100 99 50 100 100 98 100 100 100 100 100 100 100 100 100 88 30 100 100 100 10 38 100 100 100 49
53 70 99 90 100 87 100 100 100 100 100 100 100 100 100 100 100 100 100 100 100 100 100 100 100 100 100 100 100 94 100 89 100 71 66 37 27 12 98 91 100 60 96
33 83 92 100 75 100 100 100 100 100 100 100 100 100 100 100 100 100 100 100 100 100 100 100 100 100 100 100 79 100 82 86 100 92 72 13 69 55 99 95 90 74 100
12 78 36 100 100 100 100 100 100 100 100 100 100 100 100 100 100 100 100 100 100 100 100 100 100 100 100 100 100 100 90 72 100 68 24 77 13 26 38 75 97 100 100
0 82 100 100 100 100 99 100 100 100 100 100 100 100 100 100 100 100 100 100 100 100 100 100 100 100 100 100 100 100 100 72 41 74 95 46 74 100 99 100 100 100 100
0 46 100 100 72 98 76 98 100 100 100 100 100 100 100 100 100 100 100 100 100 100 100 100 100 100 100 100 100 100 100 100 99 80 77 97 100 100 95 100 100 100 100
0 1 100 100 100 84 100 97 98 100 100 100 100 100 100 100 100 100 100 100 100 100 100 100 100 100 100 100 100 100 99 100 83 100 94 99 100 100 100 100 100 100 100
0 0 0 86 100 98 100 99 100 100 100 97 100 100 100 100 100 100 98 100 100 100 100 100 100 100 100 100 100 100 100 99 100 88 72 100 100 100 100 100 100 100 100
0 0 0 76 99 100 100 98 100 96 99 98 100 100 100 100 100 100 100 100 100 100 100 100 100 100 100 100 100 100 100 100 100 100 100 100 100 100 100 100 100 100 100
0 0 0 34 47 100 100 100 100 100 100 100 100 100 100 100 100 100 100 100 100 99 100 100 100 100 100 100 100 100 100 100 100 100 100 100 100 100 100 100 100 100 100

GFSSE_prec_cloud_069.txt.gz
Cloud_Cover
4 51 0 0 0 0 0 0 0 14 18 94 7 32 5 4 0 0 1 0 0 5 5 0 0 55 59 28 24 6 90 5 50 19 8 53 87 99 80 8 7 9 44
0 16 2 0 0 0 0 0 0 0 1 21 74 71 18 88 4 0 0 5 65 5 5 2 41 100 100 28 9 5 6 5 24 84 99 93 100 96 79 25 84 47 93
5 2 16 4 0 0 0 0 0 0 0 0 86 9 2 2 5 2 5 5 6 100 36 72 100 100 100 99 8 37 9 20 80 100 100 93 98 100 98 75 100 100 100
0 0 0 1 0 0 0 0 0 0 0 0 61 5 5 5 5 5 11 74 100 100 100 100 100 85 58 45 98 5 84 100 100 77 100 100 92 100 100 100 100 98 98
0 0 0 0 0 0 0 0 0 0 0 0 12 59 25 4 5 5 5 97 100 100 100 100 60 5 27 56 82 75 100 95 29 89 100 100 100 100 100 99 100 39 88
0 0 0 0 0 7 0 0 3 1 0 37 100 39 74 88 5 5 8 98 100 100 100 100 88 24 100 100 95 100 99 61 10 9 100 100 100 100 100 100 100 100 100
0 0 0 0 7 0 78 98 18 87 18 26 100 100 100 100 100 75 100 100 100 100 100 100 100 100 100 100 92 78 100 33 0 0 58 100 99 100 100 80 19 100 100
0 0 0 0 3 96 100 94 99 100 100 100 100 100 100 100 97 100 100 100 100 96 100 100 100 100 100 100 100 100 75 0 2 11 31 100 100 100 7 4 9 2 2
0 0 0 20 99 100 100 100 100 100 100 100 100 100 100 100 100 100 99 98 100 100 100 100 100 83 90 100 100 100 4 4 46 71 88 100 100 8 5 4 3 0 7
0 0 0 92 100 100 100 100 100 100 100 100 100 100 100 100 100 100 100 100 100 100 100 100 100 100 100 94 98 6 37 100 100 97 21 97 34 5 9 0 0 4 5
0 0 0 100 100 100 100 100 100 100 100 100 100 100 100 100 100 100 100 100 100 48 100 100 100 100 100 53 12 100 100 100 100 5 5 100 15 5 5 4 5 26 78
0 21 2 68 100 100 100 100 100 100 100 100 100 100 100 100 100 100 100 99 92 98 100 100 94 100 85 92 100 100 100 100 87 17 52 26 6 41 6 18 37 100 98
0 1 6 97 100 100 100 100 100 100 100 100 100 100 100 100 100 81 100 100 86 98 99 100 34 53 100 100 100 100 100 100 100 98 97 73 100 98 96 59 98 100 100
0 0 0 98 99 100 100 100 100 100 100 100 100 100 100 100 100 100 99 95 100 100 100 73 39 100 100 100 100 100 100 100 100 100 100 100 100 99 84 100 100 98 100
4 4 4 22 73 100 100 100 100 100 100 100 100 100 100 100 100 100 92 36 63 100 90 77 80 100 100 100 100 100 100 100 100 100 100 100 100 56 95 100 100 100 100
1 0 41 83 100 100 100 100 100 100 100 100 100 100 100 100 100 100 96 65 78 100 98 85 85 96 100 100 100 100 100 100 100 100 84 100 100 100 100 98 100 32 88
0 0 32 100 27 99 100 100 100 100 100 100 100 100 100 100 100 98 16 44 93 95 100 100 50 100 98 100 100 100 100 100 100 100 100 99 100 100 100 100 91 100 53
0 11 100 100 100 94 100 100 100 100 100 100 100 100 100 100 100 100 100 98 87 57 98 100 100 95 100 100 100 100 100 100 100 100 100 100 100 100 100 95 70 67 27
0 10 100 100 100 49 100 100 100 100 100 100 100 100 100 100 100 100 100 100 100 100 92 100 99 98 100 100 100 100 100 100 100 100 100 100 75 84 94 78 73 67 28
0 1 20 100 100 95 86 100 100 98 100 100 100 100 100 100 100 100 100 100 96 100 100 100 95 100 100 100 100 100 100 100 100 100 100 94 85 93 92 70 91 96 100
0 0 11 100 100 100 100 100 100 100 100 100 100 100 100 100 100 100 100 100 97 83 100 100 100 100 100 100 100 100 100 100 100 100 99 60 94 58 68 72 100 100 100
1 22 42 100 100 100 87 93 96 100 100 100 100 100 100 100 100 100 100 100 99 100 100 100 100 100 100 100 100 100 100 100 100 100 100 100 86 100 100 100 100 100 100
0 58 30 100 100 100 100 100 100 100 100 100 100 100 100 100 100 100 100 100 100 100 100 100 100 100 100 100 100 100 100 100 100 97 92 69 87 100 97 100 94 100 100
0 2 41 48 100 100 100 86 100 100 100 100 100 100 100 100 100 100 100 100 100 100 100 100 100 100 100 100 100 100 100 100 71 92 34 9 90 92 75 100 100 100 100
0 0 48 21 60 100 100 100 88 100 100 100 100 100 100 100 100 100 100 100 100 100 100 100 100 100 100 100 100 100 100 95 30 32 89 63 100 99 100 100 100 100 100
0 1 60 98 68 75 99 100 98 99 94 79 70 100 100 100 100 100 100 100 100 100 100 100 100 100 100 100 100 100 99 96 100 100 100 59 100 100 95 100 100 92 100

GFSSE_prec_cloud_072.txt.gz
Cloud_Cover
91 52 0 0 0 0 0 0 0 0 0 59 5 98 5 5 3 0 4 5 5 5 4 5 2 0 78 98 7 0 0 1 2 5 5 100 97 100 90 26 57 6 59
14 40 0 0 8 0 0 0 0 0 0 0 1 2 54 6 5 5 0 0 0 2 5 28 5 98 100 65 0 0 5 5 95 30 17 59 77 92 96 22 5 5 6
29 42 5 0 4 0 0 0 4 1 0 5 5 32 0 5 5 20 6 4 5 5 5 34 94 100 100 13 6 30 100 100 100 100 73 99 88 80 100 100 71 69 44
2 48 26 0 0 0 1 4 29 2 0 0 0 0 0 4 35 4 45 5 5 82 49 84 100 100 49 5 70 100 96 100 100 64 90 97 86 100 100 100 76 96 100
0 25 48 0 0 0 3 12 0 0 10 0 0 88 4 4 0 1 5 76 100 95 100 100 100 65 25 67 100 100 96 97 12 100 89 97 100 100 100 100 100 100 97
0 0 0 4 0 0 0 4 0 0 13 0 0 91 100 5 5 2 5 11 75 75 100 100 98 90 100 100 100 88 5 86 100 100 100 100 100 100 100 100 100 98 100
0 0 0 16 0 0 0 1 0 13 80 99 52 94 64 10 68 63 14 5 30 35 86 100 100 100 97 91 100 58 100 100 65 100 100 100 100 100 100 100 100 100 81
0 0 0 1 40 20 0 1 99 100 100 100 100 100 100 100 100 100 100 41 26 40 74 81 92 100 100 100 100 100 100 100 100 28 100 100 100 100 90 87 90 75 87
0 1 0 0 10 65 2 4 100 100 100 100 100 100 100 100 100 100 100 100 100 38 99 97 93 66 98 100 100 100 100 100 100 6 97 100 100 100 33 100 87 13 5
0 3 16 17 17 31 92 100 100 100 100 100 100 100 100 100 100 100 100 100 100 99 61 56 88 30 100 100 100 100 100 100 100 86 97 100 100 99 61 70 87 88 22
5 2 30 41 60 98 100 100 100 100 100 100 100 100 100 100 100 100 100 100 100 100 97 27 55 62 100 100 100 100 87 30 90 69 97 100 100 95 28 72 100 48 34
26 15 32 52 44 54 100 100 100 100 100 100 100 100 100 100 100 100 100 98 100 100 60 93 97 70 100 100 100 27 6 16 100 99 100 100 100 81 100 98 100 67 10
4 20 33 51 68 100 100 100 100 100 100 63 100 100 100 100 100 100 100 100 52 100 100 94 100 96 100 100 94 50 29 100 100 100 100 100 100 100 100 100 97 38 97
21 29 27 67 29 61 100 100 100 100 100 100 100 100 100 100 100 100 100 100 100 100 100 100 92 100 93 100 66 100 100 100 100 100 100 100 100 100 100 100 70 100 100
11 16 48 94 100 80 100 100 100 100 100 100 100 100 100 100 100 100 100 100 100 100 76 57 92 93 82 100 100 100 100 100 100 100 100 100 100 100 100 100 100 100 100
8 15 11 48 74 98 100 100 100 100 100 100 100 100 100 100 100 100 100 100 76 100 99 94 100 95 64 99 100 93 100 100 100 94 100 100 100 100 100 100 100 100 100
2 0 1 8 89 100 100 100 100 100 100 100 100 100 100 100 100 100 100 100 100 39 100 89 99 96 68 91 100 100 100 100 100 100 100 100 100 100 91 100 100 100 100
7 1 0 0 5 34 100 100 100 100 100 100 100 100 100 100 100 100 100 100 100 99 88 95 69 100 92 99 100 100 100 100 100 100 100 100 100 100 99 100 100 100 100
0 11 6 6 51 92 100 100 100 100 100 100 100 100 100 100 100 100 100 100 100 94 78 83 100 89 62 100 100 100 100 100 100 100 100 100 100 100 100 100 94 100 100
1 0 0 73 100 44 82 100 100 100 100 100 100 100 100 100 100 100 100 100 100 100 100 69 65 50 88 100 100 100 100 98 100 100 100 100 100 100 99 100 100 100 100
0 0 53 100 79 81 80 91 100 100 100 100 100 100 100 100 100 100 100 100 100 100 100 99 68 100 82 100 100 100 100 100 100 100 100 100 100 100 100 100 100 100 90
26 3 11 53 99 72 100 91 100 100 100 100 100 100 100 100 100 100 100 100 100 100 100 99 100 100 100 100 100 100 100 100 100 100 100 100 100 100 100 100 100 96 100
47 60 94 100 94 95 100 91 97 100 100 100 100 100 100 100 100 100 100 100 100 100 100 100 100 100 100 100 100 100 100 100 100 100 100 100 100 100 100 100 100 98 89
80 65 65 64 74 89 100 100 88 100 93 96 100 100 100 100 100 100 100 100 100 100 100 100 100 100 100 100 100 100 100 100 100 100 100 100 100 100 89 100 100 99 100
87 97 53 43 41 26 96 78 96 100 95 100 100 100 100 100 100 100 100 100 100 100 100 100 100 100 100 100 100 100 100 100 100 100 100 100 100 100 99 95 100 100 100
92 100 77 46 39 30 54 97 67 85 97 100 100 100 100 100 100 100 100 100 100 100 100 100 100 100 100 100 100 100 100 100 100 100 100 100 100 100 100 100 100 100 100

GFSSE_prec_cloud_075.txt.gz
Cloud_Cover
19 51 0 0 0 12 0 0 0 0 11 14 5 24 63 4 5 0 1 5 5 1 1 0 0 0 8 55 4 0 8 0 0 1 98 100 100 97 46 38 100 35 5
0 50 1 0 0 15 0 0 0 0 11 31 12 12 93 25 71 5 3 4 37 5 5 2 0 0 100 43 0 0 0 0 2 5 62 100 100 100 100 100 100 18 8
23 61 21 1 0 1 0 0 0 0 0 28 34 36 20 5 1 5 5 4 0 5 11 1 0 5 99 6 0 1 5 12 91 77 100 100 100 100 100 85 96 86 25
17 55 39 4 1 1 0 0 3 0 6 76 67 98 100 5 25 8 4 38 16 5 5 4 5 49 87 26 84 70 5 5 72 100 100 97 96 100 99 100 89 84 65
38 88 33 15 6 18 18 0 0 0 15 100 19 5 0 0 5 0 4 5 5 5 62 94 86 63 100 100 100 79 5 89 100 100 100 99 100 99 100 100 100 100 100
9 92 32 6 3 22 9 2 0 4 7 100 56 100 99 44 0 2 0 0 3 5 5 99 100 100 100 100 100 100 100 100 100 100 100 100 100 100 100 100 100 100 100
0 23 56 1 0 12 16 4 0 40 96 100 100 94 100 93 98 55 5 4 5 5 5 11 65 100 99 96 7 84 100 100 100 100 100 100 100 100 100 100 100 99 100
0 1 28 55 12 26 14 2 0 44 94 100 100 100 100 100 99 100 74 5 5 0 2 5 49 100 58 61 5 100 100 100 100 100 100 100 100 100 100 100 85 100 66
3 20 23 70 99 99 20 0 0 100 100 100 100 100 100 100 100 100 100 65 71 60 5 30 66 100 100 47 40 34 99 100 100 100 100 100 100 100 100 67 97 93 100
12 3 15 33 54 95 100 24 2 99 100 100 100 100 100 100 100 100 100 100 100 100 100 61 54 100 6 54 58 100 100 100 100 100 100 100 100 100 100 100 100 99 67
30 27 32 47 32 25 87 100 81 80 100 100 100 100 100 100 100 100 100 100 100 100 100 99 51 100 68 6 20 100 100 100 100 100 100 100 100 100 100 79 100 100 100
35 43 98 96 44 46 58 100 100 99 100 100 100 100 100 100 100 100 100 100 99 88 97 100 100 100 97 12 97 100 100 85 96 99 58 100 100 100 100 100 100 100 100
0 31 100 100 94 51 68 100 100 100 100 100 100 100 100 100 100 100 100 100 100 54 69 8 88 100 97 83 98 69 99 91 9 5 97 100 71 100 100 100 100 100 100
20 19 100 100 100 100 100 100 100 100 100 100 100 100 100 100 100 100 100 99 81 32 100 94 100 100 91 99 97 100 100 11 14 87 100 100 100 100 100 100 100 100 100
27 45 94 74 97 90 100 100 100 100 100 100 100 100 96 100 100 100 100 100 80 98 100 100 100 100 100 96 100 100 96 32 100 100 100 100 100 99 100 100 100 100 100
6 48 88 89 70 29 93 89 100 100 100 100 100 100 100 100 100 100 100 90 100 100 100 100 100 100 92 100 52 91 99 100 100 60 99 100 100 100 100 100 100 100 100
5 22 98 92 74 32 87 89 95 100 100 100 100 100 100 100 100 100 100 100 100 100 100 100 100 98 100 100 50 100 99 100 100 100 100 100 100 100 100 100 100 100 100
10 32 68 96 69 12 34 98 100 100 100 100 100 100 100 100 100 100 100 100 100 100 95 49 59 91 100 100 99 55 100 100 100 100 86 100 100 100 100 100 100 100 100
5 37 57 49 42 32 38 100 100 100 100 100 100 100 100 100 100 100 100 100 100 100 73 87 10 99 100 100 100 98 99 100 100 100 100 100 100 100 100 100 100 100 54
31 33 33 44 59 76 66 97 99 100 100 100 100 100 100 100 100 100 100 100 100 100 100 100 82 75 98 100 100 100 68 98 98 100 100 100 100 100 100 100 100 100 88
71 57 40 55 74 80 100 100 100 100 100 100 100 100 100 100 100 100 100 100 100 100 100 100 65 93 90 84 100 72 43 99 100 100 100 100 100 100 100 100 100 100 100
97 67 51 48 100 89 57 85 91 100 100 100 100 100 100 100 100 100 100 100 100 100 100 100 100 98 77 100 81 100 91 100 100 100 100 100 100 100 100 100 100 100 100
91 59 24 27 99 100 100 93 100 88 100 100 100 100 100 100 100 100 100 100 100 100 100 99 97 100 85 100 100 100 100 100 100 100 100 100 100 100 100 100 100 100 100
82 28 0 7 58 99 100 96 100 59 95 100 100 100 100 100 100 100 100 100 100 100 100 100 100 98 100 100 100 100 100 100 100 100 100 100 100 100 100 100 100 100 100
94 100 91 100 98 100 89 100 79 100 100 75 100 100 100 100 100 100 100 100 100 100 100 100 100 100 100 100 100 100 100 100 100 100 100 100 100 100 100 100 100 100 100
99 100 100 100 100 100 55 61 50 99 73 96 100 100 100 100 100 100 100 100 100 100 100 100 100 100 100 100 100 100 100 100 100 100 100 100 100 100 100 100 100 100 100

GFSSE_prec_cloud_078.txt.gz
Cloud_Cover
0 22 0 100 100 3 0 0 0 0 0 0 0 58 4 71 63 86 28 0 6 4 2 0 0 0 0 35 0 0 0 0 0 1 96 80 100 99 97 63 78 98 22
7 81 0 19 95 0 0 0 5 7 0 0 0 1 64 7 100 10 48 5 88 38 5 1 0 3 53 38 0 0 0 0 0 0 11 96 100 100 99 100 90 99 5
3 84 36 14 45 8 0 0 13 26 10 0 0 1 56 1 78 3 16 5 5 6 30 5 5 0 64 14 0 0 0 1 2 28 79 100 100 99 90 67 73 20 5
2 95 61 13 44 44 5 0 1 32 21 7 0 31 70 24 0 4 2 0 0 5 5 5 6 30 57 5 4 2 5 5 5 93 100 100 100 100 70 87 97 55 8
29 87 51 39 57 68 11 0 0 18 51 63 13 2 48 31 34 12 1 18 3 24 5 5 49 50 100 100 90 6 59 50 88 100 100 87 96 100 92 38 91 20 0
49 36 20 30 25 83 16 0 0 0 23 57 19 30 28 74 96 51 3 2 2 92 47 5 96 96 95 100 100 100 100 100 90 99 84 99 99 100 100 100 100 100 99
95 76 46 31 30 26 68 1 0 0 49 76 33 31 92 87 93 100 54 64 1 8 70 62 53 100 100 22 100 100 100 100 100 90 92 100 86 83 100 100 100 100 100
18 78 100 53 42 4 47 5 0 0 30 100 99 100 94 100 91 100 100 100 74 2 5 100 25 78 79 11 90 80 100 100 100 73 100 100 100 100 100 100 100 96 100
0 18 54 100 93 37 27 2 0 0 9 100 100 100 100 100 100 100 100 100 100 5 5 13 39 34 77 78 1 64 91 100 52 100 100 100 100 100 100 100 100 75 94
23 15 32 100 100 100 100 34 21 26 100 100 100 100 100 100 100 100 100 100 100 59 18 64 42 8 5 39 95 97 45 95 98 100 100 100 100 100 100 100 100 100 100
48 33 38 100 100 100 100 100 50 15 100 100 100 100 100 100 100 100 100 100 100 100 100 100 77 100 30 73 42 69 100 80 96 97 100 100 100 100 100 100 100 100 100
93 98 96 100 81 96 81 50 71 58 100 100 100 100 100 100 100 100 100 100 100 100 100 100 64 10 74 91 68 100 99 84 100 100 100 96 100 100 99 98 100 100 98
22 50 100 100 82 100 100 100 98 100 100 100 100 100 100 100 100 100 100 100 100 100 100 100 39 29 22 100 81 69 88 83 100 93 97 100 100 58 99 100 100 100 100
10 29 99 100 100 100 100 100 100 100 100 100 100 100 100 100 100 100 100 100 100 100 100 52 77 46 79 98 92 100 99 90 61 99 72 63 99 100 100 100 100 100 100
2 32 100 100 100 86 93 94 100 100 100 100 100 100 100 100 100 100 100 100 100 100 100 89 100 100 85 99 85 100 100 99 100 98 38 97 100 100 100 100 100 100 100
5 48 100 100 98 100 100 91 100 100 100 100 100 100 100 100 100 100 96 100 100 100 100 100 100 100 100 100 80 99 100 100 84 100 100 100 74 96 100 100 100 100 100
4 41 100 99 100 58 88 82 100 100 100 100 100 100 100 100 100 100 81 100 100 100 100 72 62 100 93 47 94 100 100 83 98 100 100 100 85 100 100 100 100 100 100
15 72 100 100 100 61 80 83 90 100 100 100 100 100 100 100 100 100 100 100 100 100 100 100 100 100 100 100 100 100 100 60 80 100 91 100 100 100 100 100 100 100 100
6 46 100 100 100 74 89 100 100 100 100 100 100 100 100 100 100 100 100 100 100 100 100 100 100 100 97 77 100 96 100 46 100 100 91 100 100 99 95 100 100 100 100
28 34 100 100 100 98 100 100 97 100 100 100 100 100 100 100 100 100 100 100 100 100 100 100 100 96 99 91 100 100 93 95 100 100 95 99 100 100 100 100 100 100 100
87 88 100 100 100 100 100 100 100 100 100 100 100 100 100 100 100 100 100 100 100 100 100 100 100 100 100 100 99 98 82 84 100 100 100 100 100 100 100 100 100 100 100
93 100 100 100 100 100 54 100 82 100 100 100 100 100 100 100 100 100 100 100 100 100 100 100 100 100 100 100 93 94 96 95 100 100 100 100 100 100 100 100 100 100 100
57 100 100 100 100 99 98 100 80 98 100 100 100 100 100 100 100 100 100 100 100 100 100 100 100 100 100 100 100 94 73 86 99 82 100 100 100 100 100 100 100 100 100
78 100 100 100 100 100 40 100 82 100 100 100 100 100 100 100 100 100 100 100 100 100 100 98 98 100 99 100 100 100 95 99 100 93 87 99 100 100 100 100 100 100 100
100 100 93 88 100 100 100 100 6 55 98 100 100 100 100 100 100 100 100 100 100 100 100 100 100 100 100 100 100 100 100 100 100 100 100 100 100 100 100 100 100 100 100
100 75 50 35 65 99 100 100 3 52 100 79 99 100 100 100 100 100 100 100 100 100 100 100 100 100 100 100 100 100 100 100 100 100 100 100 100 100 100 100 100 100 100

GFSSE_prec_cloud_081.txt.gz
Cloud_Cover
0 0 17 100 19 0 0 0 0 0 0 0 0 0 0 2 6 48 73 14 5 5 4 10 0 17 79 100 0 0 0 0 0 0 0 1 39 27 42 13 8 39 5
0 0 0 100 41 0 0 0 0 0 0 0 0 0 0 1 2 4 26 5 5 56 10 5 5 0 22 9 0 0 0 0 0 0 0 0 96 100 48 39 18 20 8
0 26 12 100 97 0 0 3 12 1 0 0 0 0 0 3 1 86 5 5 6 25 8 39 5 6 67 12 3 3 0 0 0 0 1 85 81 100 74 78 94 40 5
0 22 22 98 100 0 0 10 6 25 0 7 11 1 0 17 36 0 0 0 5 5 5 9 13 100 64 5 4 1 0 1 4 26 90 80 99 98 53 100 74 26 12
0 54 60 43 100 17 0 0 3 100 40 29 37 5 6 0 64 82 52 0 0 0 69 69 61 87 8 9 12 5 3 5 33 83 99 89 100 81 100 100 98 18 33
0 40 41 3 100 100 0 0 0 55 100 100 17 0 0 9 83 74 21 5 0 2 7 7 66 7 31 61 28 5 45 93 100 100 99 85 100 100 100 17 5 5 79
0 26 43 11 98 100 70 0 0 0 62 99 53 1 0 45 33 85 99 34 99 52 2 5 84 31 61 88 95 20 18 11 80 100 98 90 100 97 86 63 98 98 42
28 55 97 61 6 100 97 0 0 0 1 58 94 24 7 100 100 100 100 100 100 100 99 17 37 73 79 56 67 80 60 69 64 90 74 98 87 91 54 5 20 100 100
8 92 100 100 63 94 100 20 0 0 0 0 78 100 100 100 100 100 100 100 100 100 97 24 95 35 82 100 87 10 84 99 57 33 96 61 98 100 99 99 24 8 100
0 22 89 100 100 53 89 90 0 0 0 0 57 100 100 100 100 100 100 100 100 100 100 30 87 100 93 13 6 60 55 84 5 9 84 89 100 100 100 100 100 47 99
25 10 43 100 100 71 100 100 40 8 5 24 100 100 100 100 100 100 100 100 100 100 100 29 10 59 30 5 96 100 31 70 5 9 25 94 100 100 82 57 100 100 100
93 97 84 100 100 100 100 100 100 100 77 100 100 98 100 100 100 100 100 100 100 100 100 100 88 92 62 95 60 99 99 34 5 85 100 100 100 100 100 100 100 98 100
52 100 100 100 100 100 100 100 100 100 100 51 100 100 100 100 100 100 100 100 100 100 100 100 100 100 100 86 60 88 66 21 94 100 100 100 100 100 66 54 21 71 97
12 72 100 100 100 100 100 100 100 100 100 98 97 100 100 100 100 100 100 94 100 100 100 100 93 85 64 52 33 78 100 46 73 95 100 100 100 94 93 22 100 100 100
2 28 100 100 100 63 90 100 100 100 100 100 91 99 100 100 100 100 100 99 100 100 100 93 89 79 68 56 98 98 54 97 75 100 100 100 100 95 100 97 100 86 100
2 7 100 100 100 60 97 91 100 100 100 100 100 100 100 100 100 100 100 100 100 100 100 92 36 62 99 16 92 99 93 100 66 100 100 100 100 100 94 71 77 98 100
1 5 100 100 100 30 99 90 100 100 100 100 100 100 100 100 100 100 100 100 100 100 100 99 95 89 100 100 95 23 100 100 100 100 100 100 100 100 100 100 100 100 100
0 5 100 98 60 77 69 84 100 100 100 100 100 100 100 100 100 100 100 100 100 100 100 100 100 46 97 99 99 74 100 100 100 100 99 86 100 100 100 100 100 100 100
28 26 100 95 99 94 100 100 100 100 100 100 100 100 100 100 100 100 100 100 100 100 100 100 100 100 98 100 100 99 81 100 100 92 70 88 97 100 99 100 100 100 100
100 95 100 100 78 88 100 96 79 100 100 96 100 100 100 100 100 100 100 100 100 100 100 100 100 100 100 100 97 77 75 99 83 67 86 100 86 100 100 92 82 100 100
85 100 100 100 72 98 100 100 100 98 94 78 94 100 100 100 100 100 100 100 100 100 100 100 100 100 100 86 93 73 100 100 100 100 62 53 100 99 80 100 100 100 100
78 87 100 98 85 100 100 80 100 100 100 89 100 100 100 100 100 100 100 100 100 100 100 100 100 100 100 100 84 96 100 98 88 93 95 95 63 100 100 100 100 100 100
94 87 100 100 100 100 100 89 100 100 100 100 100 100 100 100 100 100 100 100 100 100 100 100 100 100 100 100 100 100 100 96 100 74 99 93 51 69 99 98 100 100 100
100 50 100 100 100 100 95 45 100 100 100 98 100 100 100 100 100 100 100 100 100 100 100 100 100 100 100 100 100 100 86 84 94 89 62 72 78 94 72 99 100 100 98
33 69 100 100 100 100 57 4 100 100 100 100 100 100 100 100 100 100 100 100 100 100 100 100 100 100 100 100 100 100 100 100 69 100 100 100 100 100 100 77 94 99 100
82 98 100 100 100 100 72 61 97 38 100 100 100 100 100 100 100 100 100 100 100 100 100 100 100 100 100 100 100 100 100 100 100 100 100 100 100 100 100 100 100 100 100

GFSSE_prec_cloud_084.txt.gz
Cloud_Cover
0 0 0 0 0 0 0 0 0 0 0 0 0 0 0 0 0 0 2 0 3 4 4 6 0 99 18 20 5 0 0 0 0 0 0 1 16 21 0 0 11 41 5
0 0 0 0 0 0 0 0 0 0 0 0 0 2 0 0 0 0 2 5 2 5 5 5 0 58 88 1 0 0 0 0 0 0 0 16 72 30 5 5 66 12 5
0 0 2 0 0 1 10 12 0 0 0 0 0 0 0 0 0 0 4 5 5 5 5 5 5 2 5 9 0 0 0 0 0 0 0 64 86 33 19 40 5 5 5
0 0 0 87 0 0 0 0 0 0 0 2 2 15 4 1 0 0 5 5 5 5 5 64 89 10 16 0 0 1 2 0 0 0 74 100 93 65 14 50 22 28 16
0 0 0 87 10 0 0 0 0 11 0 1 4 2 0 0 3 5 0 4 1 5 0 5 61 55 6 5 5 4 5 5 4 84 93 99 100 39 74 83 62 99 12
0 0 40 30 22 0 0 0 0 92 0 0 0 0 0 4 97 7 65 35 2 0 0 2 5 20 100 5 5 5 5 3 3 99 100 100 93 64 100 100 100 15 2
0 0 0 2 19 0 0 0 0 30 95 68 4 0 0 0 18 34 82 100 100 24 10 16 6 39 83 5 5 7 5 5 92 98 87 69 81 60 100 100 96 7 5
0 0 0 13 0 2 0 0 0 0 10 99 52 0 0 0 100 100 100 100 100 100 100 100 100 66 35 5 5 94 7 5 100 90 100 86 50 88 100 100 17 5 5
0 0 14 20 25 75 54 0 0 0 0 0 0 0 52 100 100 100 100 100 100 100 100 100 100 100 10 5 2 21 15 5 100 100 93 77 40 100 100 100 98 14 52
0 1 86 98 96 100 100 51 0 0 0 0 0 3 100 100 100 100 100 100 100 100 100 100 100 43 21 5 5 5 95 2 100 97 100 40 100 100 100 100 100 100 100
0 0 15 100 97 100 95 89 50 13 1 3 1 8 100 100 100 100 100 100 100 91 100 100 100 31 6 5 93 94 0 97 100 100 100 74 100 100 100 100 100 98 100
0 0 2 100 97 93 100 66 36 62 23 8 10 26 100 100 100 100 100 100 100 100 100 100 100 6 4 55 36 40 56 100 100 100 100 60 100 92 100 100 100 100 84
0 5 11 100 100 27 54 63 48 67 62 42 55 32 100 100 100 100 100 100 100 100 100 100 100 62 43 74 90 84 100 81 51 35 49 100 98 100 100 100 100 94 99
0 0 23 100 100 76 74 100 100 94 100 99 59 39 56 100 100 100 100 100 100 100 100 100 100 100 100 98 100 100 87 80 85 18 44 65 100 100 100 97 14 8 9
0 0 6 27 76 80 100 100 100 100 100 100 90 92 32 100 89 100 100 100 100 100 100 100 100 100 100 100 100 87 84 80 97 36 70 90 100 100 97 94 99 100 100
0 0 0 0 14 24 24 99 100 100 100 100 100 87 69 100 99 100 100 100 100 100 100 100 100 97 100 95 100 88 87 100 100 100 100 100 100 99 100 100 100 81 95
0 0 7 12 24 12 41 56 100 100 100 95 99 99 80 100 100 100 100 100 100 100 100 100 100 82 91 100 91 100 73 78 100 100 97 100 100 93 100 100 100 75 94
0 0 17 14 9 13 57 53 61 91 94 94 100 100 100 100 100 100 100 100 100 100 100 100 100 100 100 100 100 100 98 54 100 100 100 100 100 100 100 100 100 100 100
0 0 3 29 20 56 99 100 99 61 93 100 100 100 100 100 100 100 100 100 100 100 100 100 100 100 96 100 100 100 81 99 100 84 89 100 100 96 99 100 100 100 66
0 0 5 29 97 68 100 100 100 82 100 100 100 100 100 100 100 100 100 100 100 100 100 100 100 100 92 100 100 100 99 100 100 99 94 99 100 96 71 59 91 99 68
0 0 5 99 81 97 100 87 100 98 88 100 100 100 100 100 100 100 100 100 100 100 100 100 100 100 100 100 100 100 100 100 100 100 100 100 100 95 74 98 94 100 94
0 0 26 39 94 86 15 12 63 84 92 100 100 79 74 98 100 100 100 100 100 100 100 100 100 100 100 100 100 100 100 100 94 92 100 100 94 55 59 95 100 70 59
0 0 38 44 97 56 5 18 95 91 71 87 80 85 50 63 100 100 100 100 100 100 100 100 100 100 100 100 100 100 100 100 100 100 100 100 100 52 86 85 54 63 97
1 7 50 74 49 83 38 39 67 3 50 71 58 71 100 100 100 100 100 100 100 100 100 100 100 100 100 100 100 100 100 100 100 100 90 94 81 72 60 31 32 48 58
47 94 85 99 79 61 42 12 24 35 64 80 98 81 100 100 100 100 100 100 100 100 100 100 100 100 100 100 100 100 100 100 100 100 100 92 75 100 88 100 78 72 96
42 78 98 100 100 95 44 18 20 62 60 52 93 100 100 100 100 100 100 100 100 100 100 100 100 100 100 100 100 100 100 100 100 100 100 100 100 100 82 100 100 100 100

GFSSE_prec_cloud_087.txt.gz
Cloud_Cover
0 0 0 0 0 0 0 0 0 0 0 0 0 0 0 0 0 0 0 0 0 0 0 13 9 0 0 0 0 0 0 0 0 0 0 0 4 0 0 0 0 22 4
0 0 15 0 0 0 0 0 0 0 0 0 0 0 0 0 0 0 0 0 0 2 8 13 1 65 22 3 0 0 0 0 0 0 0 4 10 0 0 0 88 14 5
0 0 1 0 0 0 0 0 0 0 0 0 0 0 0 0 0 0 0 0 5 3 8 18 7 0 5 21 0 0 0 0 0 0 0 70 45 8 0 0 5 5 16
0 0 0 0 0 0 0 0 0 0 0 0 0 0 0 0 0 0 0 0 5 5 5 5 32 22 15 0 0 0 0 0 0 0 41 100 82 33 0 5 13 26 14
0 0 0 0 0 0 0 0 0 0 0 2 0 0 0 0 0 0 0 24 79 22 5 4 23 17 0 0 0 0 0 0 0 13 32 80 75 33 10 7 5 5 24
0 0 40 0 0 0 0 0 0 0 19 40 3 0 0 0 0 30 100 100 63 5 0 1 5 22 5 0 0 0 4 0 0 64 98 13 90 37 35 5 94 43 75
0 0 0 0 0 0 0 0 0 0 90 24 32 0 0 0 29 12 48 100 63 100 100 100 100 90 100 100 6 2 0 0 72 8 96 91 81 100 87 41 18 16 47
0 0 3 0 0 0 0 0 0 0 99 88 13 0 0 0 0 63 100 100 100 100 100 100 100 100 100 100 100 22 8 2 61 28 98 56 31 44 100 98 52 82 11
0 5 0 0 1 0 0 0 0 0 4 100 13 0 0 1 5 88 100 100 100 100 100 100 100 100 100 100 100 82 48 2 97 99 54 73 6 17 65 71 100 100 49
3 5 0 0 4 13 2 2 0 0 0 0 0 0 0 4 78 100 100 100 100 100 100 100 100 100 100 100 31 5 1 1 51 100 74 45 66 42 82 100 100 100 100
18 3 8 7 2 10 86 8 46 24 1 10 30 1 53 1 99 100 100 100 100 100 100 100 100 100 100 50 31 0 4 77 74 80 45 5 5 22 83 100 65 77 100
4 5 2 92 75 100 2 98 48 79 4 0 1 0 0 10 100 100 100 100 100 100 100 100 100 100 100 56 25 5 0 96 100 99 100 25 38 19 25 71 99 100 100
5 2 1 43 73 68 98 63 5 66 68 73 61 37 42 1 100 100 100 100 100 100 100 100 100 100 83 35 18 7 41 80 100 100 100 5 55 28 65 48 97 100 98
4 4 0 18 76 0 0 1 0 43 67 69 62 52 24 17 81 100 100 100 100 100 100 100 100 100 100 37 38 18 94 99 96 77 100 100 33 28 53 79 99 100 44
25 3 3 0 8 0 0 59 90 72 90 54 39 51 25 88 25 100 100 100 100 100 100 100 100 100 100 66 99 35 95 53 100 98 27 47 100 98 97 57 100 93 25
6 1 0 2 5 0 10 90 100 97 60 83 82 54 62 68 76 92 100 100 100 100 100 100 100 100 100 82 59 96 100 99 99 72 100 100 100 99 99 100 100 48 87
5 5 0 4 12 9 0 35 98 100 42 100 100 96 62 61 87 49 100 100 100 100 100 100 100 100 100 72 24 100 100 68 100 100 100 100 100 100 100 100 8 100 100
58 0 0 0 12 10 0 2 45 72 100 100 100 49 83 53 71 46 54 97 100 100 100 100 100 100 100 100 100 100 97 93 100 97 59 96 100 71 100 99 94 100 100
1 0 0 2 20 19 0 1 18 72 99 97 100 71 29 37 57 64 70 100 100 100 100 100 100 100 100 100 98 100 100 100 100 67 89 100 59 91 100 100 100 100 100
2 0 0 17 20 35 28 52 27 38 96 100 100 100 61 98 100 100 100 100 100 100 100 100 100 100 100 100 100 100 93 100 100 9 68 82 92 64 100 100 100 91 100
0 0 0 22 17 74 56 90 14 37 94 100 100 100 100 100 100 100 100 100 100 100 100 100 100 100 100 100 100 100 100 100 100 72 85 100 100 100 100 100 100 100 98
0 0 0 7 7 46 26 7 5 31 50 94 66 52 84 98 100 100 100 100 100 100 100 100 100 100 100 100 100 100 100 100 100 100 95 100 100 100 80 100 97 61 98
0 0 0 0 7 98 18 10 7 44 89 79 10 29 87 30 97 88 100 100 100 100 100 100 100 100 100 100 100 100 100 100 90 100 100 99 100 100 100 83 79 90 91
0 0 0 0 1 84 28 5 56 16 6 18 48 100 100 81 95 90 100 100 100 100 100 100 100 100 100 100 100 100 100 100 100 100 100 100 100 100 100 100 100 97 95
0 0 0 0 6 69 54 48 74 94 5 12 60 91 100 99 88 92 100 100 100 100 100 100 100 100 100 100 100 100 100 100 100 100 100 100 100 100 100 100 100 100 100
15 0 0 4 49 99 61 96 94 22 1 2 14 100 100 95 100 100 100 100 100 100 100 100 100 100 100 100 100 100 100 100 100 100 100 100 100 100 100 100 100 100 100